Location: Arrien
(42.8963°N, 1.0429°E)
Time: 14:38:50
(UTC+00:00)

BlueWalker 3 - Pass Details

Date: 26 February 2026
Orbit: 451 x 457 km, 53.2° (Epoch: 14 March)

Event Time Altitude Azimuth Distance (km) Brightness Sun altitude
Exits shadow 04:06:13 17° 119° (ESE) 1,226 4.3 -28.2°
Drops below altitude 10° 04:08:11 10° 87° (E) 1,597 5.4 -27.8°
Sets 04:10:49 0° 67° (ENE) 2,474 6.7 -27.4°
